Temperature
16 16 16 16 17 17 17 17 17 17 17 17 16 16 16 16 16 16 16 16 16 16 16 16 16 15 15 15 15 15 15 15 15 15 15 15 15 15 15 15 15 15 15
17 16 16 16 17 17 17 17 17 17 16 16 16 16 16 16 16 16 16 16 16 16 16 16 15 15 15 15 15 15 15 15 15 15 15 15 15 15 15 15 15 14 14
17 16 16 16 16 16 17 17 17 16 16 16 16 16 16 16 16 16 16 15 15 15 15 15 15 15 15 15 15 15 15 15 15 15 15 15 14 14 15 15 15 14 14
17 17 16 16 16 16 16 16 16 16 16 16 16 16 16 15 15 15 15 15 15 15 15 15 15 15 15 15 15 15 15 15 15 15 14 14 14 14 14 15 14 14 14
17 16 16 16 16 16 16 16 16 16 16 16 15 15 15 15 15 15 15 15 15 15 15 15 15 15 15 15 15 14 14 14 14 14 14 14 14 14 14 14 14 14 14
17 16 16 16 16 16 16 16 16 16 16 15 15 15 15 15 15 15 15 15 15 15 15 15 15 15 15 14 15 14 14 14 14 14 14 14 14 14 14 14 14 14 14
16 16 15 15 15 15 15 15 16 15 15 15 15 15 15 15 15 15 15 15 15 15 15 15 15 14 14 14 14 14 14 14 14 14 14 14 14 14 14 14 14 14 14
16 16 15 15 15 15 15 15 15 15 15 15 15 15 15 14 14 14 15 15 15 15 15 15 14 14 14 14 14 14 14 14 14 14 14 14 13 14 14 14 14 14 14
16 15 15 15 14 14 15 15 15 15 15 15 15 15 14 14 14 14 14 14 15 14 14 14 14 14 14 14 14 14 14 13 13 13 13 13 13 13 13 14 14 13 13
15 15 15 14 14 14 14 14 15 15 15 15 15 14 14 14 14 14 14 14 14 14 14 14 14 14 14 14 14 14 13 13 13 13 13 13 13 13 13 13 13 13 13
14 14 14 14 14 14 14 14 14 14 14 14 14 14 14 14 14 14 14 14 14 14 14 14 14 14 14 14 13 13 13 13 13 13 13 13 13 13 13 13 13 13 13
14 14 14 14 14 14 14 14 14 14 14 14 14 14 13 13 13 13 13 14 14 14 13 13 14 13 13 13 13 13 13 13 13 13 13 13 13 13 13 13 13 13 13
14 14 14 14 13 14 14 14 13 13 13 13 13 13 13 13 13 13 13 13 13 13 13 13 13 13 13 13 13 13 13 13 13 13 13 13 13 13 13 13 13 13 13
14 14 13 13 13 13 13 13 13 13 13 13 13 13 13 13 13 13 13 13 13 13 13 13 13 13 13 13 13 13 13 13 13 13 12 12 12 12 12 12 12 12 12
14 13 13 13 13 13 13 13 13 13 13 13 13 13 13 13 12 12 12 12 13 13 13 12 12 13 12 12 12 12 12 12 12 12 12 12 12 12 12 12 12 12 12
13 13 13 13 13 13 13 13 13 13 13 13 13 13 12 12 12 12 12 12 12 12 12 12 12 12 12 12 12 12 12 12 12 12 12 12 12 12 12 12 12 12 12
13 13 13 13 12 12 12 12 13 12 13 13 12 12 12 12 12 12 12 12 12 12 12 12 12 12 12 12 12 12 12 12 12 11 11 12 11 11 11 11 11 11 11
13 13 12 12 12 12 12 12 12 12 12 12 12 12 12 12 12 12 12 12 12 12 11 11 11 12 12 11 11 11 11 11 11 11 11 11 11 11 11 11 11 11 11
13 12 12 12 12 12 12 12 12 12 12 12 12 12 12 12 12 12 12 12 11 11 11 11 11 11 11 11 11 11 11 11 11 11 11 11 11 11 11 11 11 11 11
12 12 12 12 12 12 12 12 12 11 11 12 12 12 12 11 11 11 11 11 11 11 11 11 11 11 11 11 11 10 10 10 10 10 10 10 10 10 10 10 10 10 10
12 12 12 12 11 11 11 11 11 11 11 11 11 11 11 11 11 11 11 11 11 11 11 11 10 10 10 10 10 10 9 9 10 10 10 10 10 10 10 10 10 10 10
12 12 11 11 11 11 11 11 11 11 11 11 11 11 11 11 11 11 11 11 11 11 10 10 10 10 10 10 10 9 9 9 9 9 9 9 10 10 10 10 10 10 10
11 11 11 11 11 11 11 11 11 11 10 10 11 11 11 11 11 11 11 11 10 10 10 10 10 10 10 10 10 10 9 9 8 9 9 9 9 9 9 9 9 9 9
11 11 11 11 11 11 11 11 11 11 11 11 11 11 10 10 10 10 10 10 10 10 10 10 10 10 10 10 9 9 10 9 9 9 8 9 9 9 9 9 9 9 9
10 10 10 10 11 11 10 10 10 10 11 10 10 10 10 10 10 10 10 10 10 10 10 10 9 9 9 9 9 9 9 9 9 9 8 8 8 9 9 9 9 9 8
10 10 10 10 10 10 10 10 10 10 10 10 10 10 10 10 10 9 9 9 9 9 9 9 9 9 9 9 9 9 9 9 9 9 9 8 8 8 8 8 8 8 8
Wind_Speed
8 13 18 17 16 16 15 15 15 14 14 14 14 14 14 14 14 14 14 14 14 14 14 15 16 17 17 18 18 18 18 18 18 18 18 18 18 18 18 18 17 17 19
11 16 19 18 17 16 15 15 15 14 14 14 14 14 14 14 13 13 13 13 13 13 14 15 15 16 16 16 17 17 17 17 17 17 17 17 18 18 18 18 17 16 18
14 17 19 18 17 16 16 15 15 14 14 13 13 13 13 13 13 13 13 12 12 13 14 14 15 15 15 15 15 15 16 16 16 15 15 15 16 17 17 18 18 18 18
16 16 18 19 17 16 16 15 15 14 13 13 13 13 13 13 13 13 12 12 12 13 13 13 14 14 14 14 14 14 15 15 14 13 12 13 14 16 17 17 17 17 17
14 16 17 19 18 17 16 16 15 14 13 13 13 13 13 12 12 12 12 12 12 12 13 13 14 13 13 13 13 14 14 15 14 13 13 13 13 15 16 16 16 16 16
12 15 18 19 18 17 16 16 15 14 13 13 12 12 12 12 12 12 12 12 12 12 13 13 13 12 12 12 13 14 14 14 13 13 12 12 12 14 15 15 15 15 15
11 14 17 18 17 17 16 15 15 14 13 13 12 12 12 12 12 12 12 12 12 12 13 12 12 11 11 12 13 13 14 13 13 12 11 11 13 14 14 14 14 14 15
13 13 16 17 17 16 15 15 14 14 13 13 12 12 12 12 12 12 11 11 11 11 11 11 11 11 11 12 12 13 14 13 12 11 11 11 13 14 14 14 14 14 14
12 12 12 14 15 15 15 15 14 13 13 13 12 12 12 12 12 11 11 11 11 11 10 11 11 11 12 12 13 13 14 13 11 10 10 10 13 13 13 13 13 13 13
9 9 10 12 13 13 13 14 14 13 12 12 13 13 13 12 12 11 10 10 10 10 10 10 11 11 12 13 13 13 13 12 11 10 9 10 12 12 12 12 12 12 12
9 8 9 9 10 11 12 13 13 13 12 12 12 13 12 11 10 10 10 10 10 9 9 10 10 11 11 12 12 13 11 10 10 9 9 11 11 12 12 11 11 11 11
11 9 8 9 9 10 10 11 11 11 11 11 11 11 10 10 9 9 11 10 10 9 9 9 9 10 9 9 10 11 10 10 9 8 9 11 11 12 12 11 11 11 11
11 10 8 9 10 9 8 9 8 9 9 9 10 11 10 9 8 8 8 8 8 8 7 8 8 8 8 9 9 9 9 9 9 8 9 10 11 12 12 11 11 10 10
10 10 9 8 9 9 9 8 8 7 7 7 9 11 10 7 7 7 6 6 7 6 6 7 7 7 8 9 9 9 9 8 8 8 9 10 10 10 11 10 10 10 10
10 9 9 8 9 9 8 7 7 7 8 8 9 10 11 8 6 6 6 7 6 7 7 6 7 7 7 8 8 9 8 8 8 8 8 9 9 9 9 9 9 9 9
10 10 9 9 9 9 8 7 7 7 9 9 9 10 11 10 8 7 6 6 6 7 7 7 7 6 6 7 7 8 8 8 8 8 8 8 8 8 8 8 7 7 8
10 10 10 10 9 9 9 8 8 8 9 8 9 11 12 11 10 8 6 5 6 8 8 7 7 7 5 6 5 6 7 8 8 8 8 8 7 7 7 8 7 7 7
9 9 10 9 9 9 8 8 8 8 8 8 9 10 11 12 11 9 6 5 7 8 8 5 5 4 4 4 4 4 5 6 7 8 8 8 7 6 6 6 6 6 6
9 10 9 8 9 9 8 7 8 8 8 8 9 9 11 12 12 10 7 6 9 7 5 5 4 4 5 4 4 4 4 4 5 6 7 7 7 7 6 6 6 5 5
8 9 9 8 8 8 6 5 5 6 6 7 7 8 11 11 12 10 7 7 9 6 4 4 4 4 4 5 5 5 4 3 4 4 4 5 6 6 6 6 5 5 4
7 8 9 9 8 7 6 6 6 6 5 5 6 9 11 11 11 10 7 7 7 6 6 6 5 5 4 5 4 4 4 4 3 2 3 4 4 4 4 4 4 5 4
8 8 8 8 8 8 6 6 5 5 5 5 5 7 10 11 11 10 8 7 7 6 6 6 6 4 3 4 4 4 1 1 2 2 1 2 2 3 3 3 4 5 5
8 8 8 8 8 8 7 5 4 4 3 3 4 5 6 9 10 9 9 8 7 7 7 7 7 6 5 3 3 4 4 3 1 1 1 1 1 2 2 2 4 5 5
6 6 7 8 8 7 8 8 9 7 6 5 5 5 6 8 9 9 9 9 8 7 7 7 6 5 7 5 2 1 2 4 3 1 1 1 0 1 1 2 2 3 3
5 5 6 7 7 7 7 8 9 6 4 3 4 6 6 5 7 8 9 8 8 7 7 7 6 5 5 5 4 2 2 2 2 3 2 1 1 1 1 1 2 3 2
3 4 4 6 6 7 7 7 8 8 6 6 6 6 6 4 4 6 7 7 7 7 7 7 7 7 6 5 4 4 4 3 3 3 3 2 2 1 1 1 2 2 2
Wind_Direction
160 161 150 145 140 135 129 124 122 119 116 113 111 110 111 110 110 109 107 106 107 107 105 104 101 98 97 96 95 93 91 89 88 87 86 88 90 90 89 87 85 83 85
153 156 150 146 142 138 133 128 124 123 121 118 114 113 115 114 112 112 112 112 111 109 106 106 104 102 100 100 99 97 95 93 91 89 87 87 90 91 90 89 89 89 86
146 151 149 147 144 140 136 132 129 128 126 123 118 116 117 117 116 116 113 112 112 111 110 108 106 105 102 101 101 101 99 98 94 91 89 90 91 92 91 91 92 90 88
145 147 149 148 146 142 140 138 135 132 131 128 124 120 119 118 118 116 114 113 111 111 112 111 109 105 104 102 102 103 102 100 96 93 91 91 93 94 93 93 93 91 89
141 145 149 149 147 145 143 141 140 137 135 134 129 126 123 121 120 118 117 114 112 113 113 112 112 108 106 104 104 105 104 101 95 93 94 95 97 97 95 94 94 94 92
139 144 149 149 148 146 145 143 141 141 140 138 135 132 128 126 124 120 117 115 115 117 116 115 114 111 107 107 108 108 107 101 95 95 97 98 102 101 98 96 96 96 94
140 145 150 151 150 147 146 145 143 142 142 140 138 135 133 131 128 123 119 117 117 117 118 117 116 114 111 111 112 110 108 102 99 96 99 101 107 105 103 99 97 96 95
143 144 149 150 150 150 148 146 146 145 144 143 142 140 137 134 130 127 123 120 121 120 120 119 118 117 116 118 117 114 107 103 101 98 100 105 109 108 105 102 99 96 94
141 143 145 149 150 150 149 149 148 147 146 145 144 142 136 133 132 130 128 125 125 124 123 124 121 119 119 120 119 114 107 103 100 99 103 108 112 111 108 105 101 98 94
139 144 144 146 147 148 149 149 148 146 145 145 142 137 134 131 130 130 130 128 127 127 128 129 128 122 118 119 120 116 109 101 100 99 105 113 114 112 109 107 105 103 99
148 150 150 147 145 147 149 151 149 147 146 143 139 136 132 128 128 130 131 130 128 128 130 132 128 122 116 117 120 117 109 105 105 103 111 118 118 114 111 110 108 107 104
164 164 160 154 150 148 151 148 147 147 146 142 141 139 135 134 134 134 135 134 131 128 129 127 123 118 113 115 116 116 110 108 107 109 115 122 120 115 112 110 110 109 106
169 167 166 161 156 152 146 149 148 148 147 146 147 146 140 135 136 135 134 131 129 127 119 120 116 116 114 116 115 114 112 109 108 111 117 123 121 117 114 112 111 112 110
167 172 169 165 160 158 154 154 153 151 151 155 158 153 146 139 138 141 138 139 134 130 120 116 118 119 117 120 121 117 115 112 110 112 117 124 125 122 118 116 112 110 110
172 174 173 168 168 164 158 161 160 161 162 162 161 161 156 148 148 147 145 145 142 137 131 126 122 119 116 116 118 117 115 115 115 112 116 124 126 126 124 120 119 116 112
175 176 174 173 172 165 166 165 164 166 164 161 162 163 162 159 155 151 145 145 143 143 140 132 128 124 118 116 115 118 119 119 118 114 114 118 124 125 127 126 120 120 118
177 174 174 175 171 168 168 168 164 167 164 162 164 164 165 162 158 153 149 150 149 145 135 124 117 115 113 113 112 117 120 118 117 116 116 115 115 118 125 126 123 120 118
173 172 176 176 172 171 170 168 163 164 163 165 166 165 166 163 160 153 150 154 151 143 133 127 124 121 117 114 112 111 115 118 116 119 119 119 118 115 115 118 122 119 121
177 173 174 173 172 173 170 166 163 161 163 165 165 164 167 166 163 155 152 153 150 140 134 140 137 132 127 116 109 95 93 104 112 118 117 122 123 121 118 115 115 112 117
175 172 172 171 171 167 163 159 159 160 163 159 161 165 167 167 164 156 150 154 150 145 145 142 140 129 131 126 109 82 62 63 87 105 118 121 123 125 127 124 115 112 109
165 167 170 169 170 165 166 171 173 178 173 169 165 167 167 167 165 157 154 156 154 159 161 152 142 136 126 121 104 80 42 41 60 74 105 112 112 122 125 127 124 119 108
171 172 173 173 170 172 175 175 175 170 173 173 166 165 169 167 167 165 162 165 161 160 160 158 148 144 151 149 132 126 110 8 6 36 59 112 116 111 114 130 129 125 120
174 175 177 175 172 172 166 157 148 137 139 162 174 174 170 168 169 170 171 166 166 168 174 174 167 159 168 179 157 146 152 192 237 347 22 63 105 113 111 128 133 135 127
184 175 170 171 169 170 167 167 166 170 176 186 182 177 173 171 171 173 173 170 169 171 177 182 177 170 166 175 173 143 144 144 154 170 333 347 46 129 150 131 132 139 127
163 163 165 163 165 166 169 173 172 173 174 163 165 170 176 176 176 173 173 173 172 174 178 179 177 171 172 173 169 153 125 107 124 149 191 235 307 276 215 166 139 130 115
130 137 144 157 167 168 169 172 174 169 163 162 168 175 178 179 179 176 173 176 177 176 180 183 181 179 180 173 170 164 162 159 168 159 173 193 207 265 278 164 150 137 115
Height
1518 1521 1524 1527 1529 1530 1532 1534 1535 1536 1537 1538 1540 1541 1541 1543 1543 1544 1545 1546 1547 1548 1549 1550 1550 1551 1551 1552 1552 1552 1553 1553 1553 1553 1554 1554 1554 1554 1554 1554 1554 1555 1555
1516 1520 1523 1526 1528 1530 1532 1533 1535 1536 1537 1539 1540 1541 1542 1543 1544 1545 1546 1547 1548 1549 1550 1551 1551 1552 1553 1553 1553 1554 1554 1554 1555 1555 1556 1556 1556 1556 1557 1557 1557 1557 1557
1516 1519 1522 1525 1527 1530 1531 1533 1535 1536 1537 1539 1540 1541 1542 1543 1544 1545 1546 1547 1548 1549 1550 1551 1552 1553 1554 1554 1555 1555 1556 1556 1556 1557 1557 1558 1558 1559 1559 1559 1559 1559 1559
1516 1519 1521 1524 1527 1529 1531 1533 1534 1536 1537 1539 1540 1541 1542 1544 1545 1546 1547 1548 1549 1550 1551 1552 1553 1554 1554 1555 1556 1556 1557 1557 1558 1559 1559 1560 1560 1561 1561 1561 1561 1561 1561
1516 1518 1521 1524 1526 1528 1530 1532 1534 1535 1537 1538 1540 1541 1542 1544 1545 1546 1547 1548 1549 1550 1551 1553 1554 1555 1555 1556 1557 1558 1558 1559 1559 1560 1561 1561 1562 1562 1562 1563 1563 1563 1563
1515 1518 1520 1523 1525 1528 1530 1532 1533 1535 1537 1538 1539 1541 1542 1544 1545 1546 1548 1549 1550 1551 1552 1553 1554 1555 1556 1557 1558 1559 1559 1560 1561 1561 1562 1563 1563 1564 1564 1564 1564 1565 1565
1514 1517 1520 1522 1525 1527 1529 1531 1533 1534 1536 1538 1539 1540 1542 1543 1545 1546 1548 1549 1550 1551 1552 1553 1555 1556 1557 1558 1559 1560 1561 1561 1562 1563 1563 1564 1565 1565 1565 1566 1566 1566 1566
1514 1516 1519 1521 1524 1526 1528 1530 1532 1533 1535 1537 1538 1540 1541 1543 1545 1546 1548 1549 1550 1551 1552 1554 1555 1556 1557 1558 1560 1561 1562 1562 1563 1564 1565 1565 1566 1566 1567 1567 1567 1567 1568
1513 1515 1518 1520 1523 1525 1527 1529 1531 1533 1534 1536 1537 1539 1541 1542 1544 1546 1547 1549 1550 1551 1553 1554 1555 1556 1558 1559 1560 1561 1562 1563 1564 1565 1566 1566 1567 1568 1568 1568 1568 1569 1569
1513 1515 1517 1519 1521 1524 1526 1528 1530 1532 1533 1535 1537 1538 1540 1542 1543 1545 1547 1548 1550 1551 1553 1554 1555 1556 1558 1559 1561 1562 1563 1564 1565 1566 1567 1567 1568 1569 1569 1569 1569 1569 1570
1511 1513 1515 1517 1520 1522 1524 1527 1529 1531 1532 1534 1535 1537 1539 1541 1543 1544 1546 1548 1549 1551 1552 1554 1555 1556 1558 1559 1561 1562 1563 1564 1565 1566 1567 1568 1569 1569 1570 1570 1570 1570 1570
1509 1511 1513 1516 1518 1520 1523 1525 1527 1529 1531 1533 1534 1536 1538 1540 1542 1543 1545 1547 1548 1550 1552 1553 1555 1556 1557 1559 1561 1562 1563 1564 1565 1566 1567 1568 1569 1570 1570 1570 1571 1571 1571
1506 1509 1511 1514 1516 1518 1521 1523 1525 1527 1529 1531 1533 1535 1536 1538 1540 1542 1544 1546 1547 1549 1551 1552 1554 1555 1557 1559 1560 1562 1563 1564 1565 1566 1567 1568 1569 1570 1570 1571 1571 1571 1571
1504 1506 1509 1512 1514 1516 1519 1521 1523 1525 1527 1529 1531 1533 1535 1537 1539 1541 1542 1544 1546 1548 1550 1551 1553 1555 1556 1558 1560 1561 1562 1564 1565 1566 1567 1568 1569 1570 1570 1570 1571 1571 1571
1501 1504 1507 1510 1512 1514 1517 1519 1521 1523 1526 1528 1530 1532 1533 1535 1537 1539 1541 1543 1545 1547 1549 1551 1552 1554 1555 1557 1559 1561 1562 1563 1565 1566 1567 1568 1569 1569 1570 1570 1571 1571 1571
1499 1502 1504 1507 1510 1512 1514 1517 1519 1521 1523 1526 1528 1530 1532 1534 1536 1538 1540 1542 1544 1546 1548 1550 1551 1553 1555 1556 1558 1560 1561 1563 1564 1565 1566 1567 1568 1569 1569 1570 1570 1570 1571
1496 1499 1501 1504 1507 1510 1512 1515 1517 1519 1521 1523 1526 1528 1530 1532 1535 1536 1538 1540 1543 1545 1546 1548 1550 1552 1554 1556 1557 1559 1561 1562 1563 1565 1566 1567 1567 1568 1569 1569 1569 1570 1570
1493 1496 1499 1502 1504 1507 1510 1512 1515 1517 1519 1522 1524 1526 1528 1531 1533 1535 1537 1539 1541 1543 1545 1547 1549 1551 1552 1554 1556 1558 1559 1561 1562 1564 1565 1565 1566 1567 1568 1568 1569 1569 1569
1489 1492 1495 1498 1501 1504 1507 1510 1512 1515 1517 1519 1521 1524 1526 1528 1531 1533 1535 1537 1540 1542 1544 1546 1548 1549 1551 1553 1555 1557 1558 1560 1561 1562 1563 1564 1565 1566 1566 1567 1567 1568 1568
1486 1489 1492 1495 1498 1501 1504 1507 1509 1512 1514 1517 1519 1521 1523 1526 1528 1530 1533 1535 1537 1540 1541 1544 1546 1548 1550 1552 1553 1555 1557 1558 1560 1561 1562 1563 1564 1565 1565 1566 1566 1567 1567
1483 1486 1489 1492 1495 1498 1500 1503 1505 1508 1511 1513 1516 1518 1521 1523 1525 1528 1530 1532 1535 1537 1539 1541 1544 1546 1548 1550 1552 1554 1556 1557 1558 1559 1560 1561 1562 1563 1564 1564 1565 1565 1565
1479 1482 1485 1488 1491 1494 1497 1500 1503 1505 1508 1510 1513 1515 1518 1520 1523 1525 1527 1529 1532 1534 1537 1539 1541 1543 1545 1548 1549 1551 1554 1557 1556 1557 1558 1559 1560 1561 1562 1562 1563 1563 1563
1475 1478 1481 1484 1487 1491 1494 1497 1500 1503 1505 1507 1509 1511 1514 1516 1519 1522 1524 1527 1529 1531 1533 1535 1538 1540 1542 1545 1547 1549 1551 1551 1553 1555 1556 1557 1558 1559 1560 1560 1561 1561 1561
1472 1475 1479 1481 1484 1487 1490 1493 1495 1497 1499 1502 1505 1508 1511 1514 1516 1518 1521 1523 1525 1528 1530 1533 1535 1538 1540 1541 1544 1546 1548 1548 1550 1551 1554 1555 1555 1556 1557 1558 1558 1558 1559
1469 1472 1476 1478 1481 1484 1487 1489 1491 1494 1497 1500 1502 1504 1507 1510 1512 1515 1518 1520 1522 1525 1527 1530 1532 1535 1537 1538 1540 1542 1544 1546 1547 1548 1549 1552 1553 1554 1554 1555 1555 1556 1556
1467 1470 1473 1475 1478 1481 1483 1486 1488 1490 1493 1496 1498 1501 1503 1506 1509 1511 1514 1516 1519 1521 1524 1526 1529 1531 1533 1535 1537 1539 1541 1542 1544 1545 1546 1548 1549 1551 1552 1552 1553 1553 1553